Ellensburg, WA

11:53 PM PDT on March 24, 2017 (GMT -0700)
Bowers

Weather History for KELN - December, 2012

Change the Weather History Date:

Sunday, December 2, 2012

  Actual Average (KYKM) Record (KYKM)
Temperature  
Mean Temperature 40 °F -  
Max Temperature 50 °F 42 °F 64 °F (1975)
Min Temperature 30 °F 27 °F 3 °F (2006)
Degree Days  
Heating Degree Days 25    
Moisture  
Dew Point 35 °F    
Average Humidity 79    
Maximum Humidity 87    
Minimum Humidity 50    
Precipitation  
Precipitation 0.24 in - - ()
Sea Level Pressure  
Sea Level Pressure 29.41 in    
Wind  
Wind Speed 7 mph (North)    
Max Wind Speed 22 mph    
Max Gust Speed 33 mph    
Visibility 8 miles    
Events Rain    
Averages and records for this station are not official NWS values.
T = Trace of Precipitation, MM = Missing Value Source: NWS Daily Summary

Daily Weather History Graph

Daily Weather History Graph

Search for Another Location

Airport or City:

Trip Planner

Search our weather history database for the weather conditions in past years. The results will help you decide how hot, cold, wet, or windy it might be!

Date:

Astronomy

Dec. 02, 2012 Rise Set
Actual Time 7:29 AM PST 4:14 PM PST
Civil Twilight 6:54 AM PST 4:49 PM PST
Nautical Twilight 6:16 AM PST 5:27 PM PST
Astronomical Twilight 5:39 AM PST 6:04 PM PST
Moon 8:13 PM PST (12/2) 10:15 AM PST (12/2)
Length of Visible Light 9h 54m
Length of Day
8h 45m
Waning Gibbous, 85% of the Moon is Illuminated
Dec 2
Waning Gibbous
Dec 6
Last Quarter
Dec 13
New
Dec 19
First Quarter
Dec 28
Full

Hourly Weather History & Observations

Time (PST) Temp. Windchill Dew Point Humidity Pressure Visibility Wind Dir Wind Speed Gust Speed Precip Events Conditions
12:02 AM 44.6 °F 39.7 °F 37.4 °F 76% 29.38 in 10.0 mi East 9.2 mph - N/A   Overcast
12:11 AM 44.6 °F 39.7 °F 37.4 °F 76% 29.38 in 10.0 mi ESE 9.2 mph - N/A   Overcast
12:53 AM 44.1 °F 39.0 °F 37.0 °F 76% 29.34 in 10.0 mi East 9.2 mph - 0.00 in Rain Light Rain
1:53 AM 43.0 °F 37.7 °F 39.0 °F 86% 29.30 in 7.0 mi ESE 9.2 mph - 0.05 in Rain Light Rain
2:18 AM 42.8 °F 38.0 °F 39.2 °F 87% 29.28 in 5.0 mi East 8.1 mph - 0.04 in Rain Rain
2:46 AM 44.6 °F 41.4 °F 39.2 °F 81% 29.26 in 8.0 mi ESE 5.8 mph - 0.07 in Rain Light Rain
2:53 AM 43.0 °F 39.5 °F 39.0 °F 86% 29.25 in 8.0 mi East 5.8 mph - 0.08 in Rain Light Rain
3:53 AM 44.1 °F - 39.9 °F 85% 29.24 in 5.0 mi Calm Calm - 0.05 in Rain Rain
4:16 AM 42.8 °F - 39.2 °F 87% 29.20 in 7.0 mi Calm Calm - 0.04 in Rain Rain
4:53 AM 44.1 °F 42.5 °F 39.0 °F 82% 29.22 in 10.0 mi ENE 3.5 mph - 0.05 in Rain Light Rain
5:33 AM 42.8 °F 39.3 °F 39.2 °F 87% 29.21 in 10.0 mi ENE 5.8 mph - 0.00 in   Overcast
5:53 AM 43.0 °F 40.3 °F 39.0 °F 86% 29.22 in 10.0 mi NE 4.6 mph - 0.00 in   Overcast
6:53 AM 42.1 °F 38.4 °F 37.9 °F 85% 29.24 in 5.0 mi SW 5.8 mph - N/A   Mostly Cloudy
7:05 AM 41.0 °F 39.0 °F 37.4 °F 87% 29.23 in 2.0 mi WSW 3.5 mph - N/A   Mostly Cloudy
7:19 AM 41.0 °F 38.0 °F 37.4 °F 87% 29.22 in 1.0 mi North 4.6 mph - N/A   Mostly Cloudy
7:26 AM 39.2 °F 37.0 °F 35.6 °F 87% 29.22 in 2.0 mi North 3.5 mph - N/A   Mostly Cloudy
7:45 AM 39.2 °F 35.0 °F 35.6 °F 87% 29.24 in 1.8 mi North 5.8 mph - N/A   Mostly Cloudy
7:53 AM 39.9 °F 35.1 °F 36.0 °F 86% 29.26 in 2.5 mi NNW 6.9 mph - N/A   Overcast
8:00 AM 41.0 °F 35.2 °F 37.4 °F 87% 29.26 in 10.0 mi NW 9.2 mph - N/A   Overcast
8:53 AM 43.0 °F 40.3 °F 37.9 °F 82% 29.31 in 10.0 mi West 4.6 mph - 0.01 in   Overcast
9:53 AM 46.0 °F 38.0 °F 34.0 °F 63% 29.35 in 10.0 mi NW 21.9 mph 33.4 mph N/A   Clear
10:53 AM 46.9 °F - 33.1 °F 59% 29.39 in 10.0 mi WNW 21.9 mph - N/A   Clear
11:53 AM 50.0 °F - 32.0 °F 50% 29.43 in 10.0 mi NW 20.7 mph 29.9 mph N/A   Clear
1:53 PM 48.0 °F - 32.0 °F 54% 29.52 in 10.0 mi West 8.1 mph - N/A   Partly Cloudy
2:53 PM 48.9 °F - 32.0 °F 52% 29.56 in 10.0 mi WNW 9.2 mph - N/A   Scattered Clouds
3:53 PM 43.0 °F 40.3 °F 33.1 °F 68% 29.62 in 10.0 mi WSW 4.6 mph - N/A   Mostly Cloudy
4:53 PM 42.1 °F - 33.1 °F 70% 29.65 in 10.0 mi Calm Calm - N/A   Overcast
5:53 PM 36.0 °F 31.1 °F 30.0 °F 79% 29.68 in 10.0 mi West 5.8 mph - N/A   Scattered Clouds
6:53 PM 35.1 °F 32.2 °F 30.0 °F 82% 29.70 in 10.0 mi NNW 3.5 mph - N/A   Clear
7:53 PM 32.0 °F 26.4 °F 28.0 °F 85% 29.73 in 10.0 mi East 5.8 mph - N/A   Clear
8:53 PM 32.0 °F 28.7 °F 27.0 °F 82% 29.75 in 10.0 mi NE 3.5 mph - N/A   Clear
9:53 PM 30.9 °F 27.5 °F 27.0 °F 85% 29.76 in 10.0 mi NNE 3.5 mph - N/A   Clear
10:53 PM 30.9 °F - 27.0 °F 85% 29.80 in 10.0 mi Calm Calm - N/A   Clear
11:53 PM 32.0 °F 28.7 °F 27.0 °F 82% 29.81 in 10.0 mi NNE 3.5 mph - N/A   Overcast